Location: La Sioule Rivi�re
(46.3664°N, 3.3197°E)
Time: 08:45:27
(UTC+00:00)

Daily predictions for brighter satellites

Satellite Brightness Start Highest point End
(mag) Time Altitude Azimuth Time Altitude Azimuth Time Altitude Azimuth
USA 307 3.5 17:01:32 10° NW 17:05:37 40° NNE 17:09:40 10° E
H-2A R/B 2.2 17:02:19 10° N 17:06:28 75° WNW 17:10:33 10° SSW
COSMO-SKYMED 1 3.7 17:04:38 10° NE 17:08:09 24° E 17:11:40 10° SSE
Envisat 3.5 17:03:26 10° S 17:08:28 67° WSW 17:13:34 10° NNW
Landsat 5 4.1 17:05:52 10° N 17:09:41 55° WNW 17:13:36 10° SSW
Cosmos 1300 2.8 17:06:30 10° S 17:10:13 56° E 17:13:59 10° NNE
USA 308 3.5 17:06:31 10° NW 17:10:37 42° NNE 17:14:42 10° E
Cosmos 1400 Rocket 3.4 17:08:07 10° SSE 17:11:54 37° E 17:15:40 10° NNE
Cosmos 1697 Rocket 3.8 17:09:04 10° SSE 17:13:18 22° E 17:17:34 10° NE
CZ-4B R/B 1.5 17:10:52 10° NNE 17:13:58 45° E 17:16:58 10° S
Cosmos 1825 Rocket 3.7 17:10:06 10° N 17:14:34 82° W 17:18:58 10° S
Cosmos 1825 4.1 17:13:52 10° NE 17:15:22 12° ENE 17:16:53 10° E
ERS-2 2.1 17:14:11 10° NNE 17:17:49 60° ESE 17:21:25 10° S
Helios 1A Rocket 3.9 17:15:37 10° ESE 17:19:00 25° ENE 17:22:23 10° N
BREEZE-M TANK 3.5 17:10:24 10° W 17:21:26 82° S 17:25:00 11° E
YAOGAN 1 3.8 17:18:14 10° ESE 17:21:26 21° ENE 17:24:39 10° NNE
Meteor 2-21 Rocket 4.5 17:16:04 10° N 17:22:17 87° E 17:28:24 10° S
NOAA 11 4.1 17:20:48 10° SSE 17:26:12 71° ENE 17:31:38 10° N
Cosmos 1340 2.8 17:23:09 10° N 17:26:52 52° ENE 17:30:33 10° SSE
CZ-2D R/B 4.0 17:23:37 10° SE 17:26:57 30° ENE 17:30:17 10° N
Cosmos 44 3.5 17:22:34 10° SW 17:27:04 67° NW 17:31:53 10° NNE
Okean O Rocket 2.2 17:23:49 10° S 17:28:07 62° WSW 17:32:27 10° NNW
Cosmos 2228 3.4 17:24:20 10° SSW 17:28:34 68° W 17:32:51 10° N
Cosmos 1726 Rocket 3.6 17:25:02 10° S 17:29:23 90° WNW 17:33:49 10° N
CZ-4 R/B 2.3 17:26:38 10° ESE 17:29:48 25° ENE 17:32:58 10° NNE
SL-4 R/B 2.5 17:30:40 10° WNW 17:34:00 38° N 17:36:33 16° ENE
Cosmos 1346 Rocket 3.5 17:31:00 10° N 17:34:38 32° ENE 17:38:14 10° SE
Aureole 3 2.6 17:32:07 10° S 17:35:09 59° E 17:38:05 10° NNE
Cosmos 2058 3.6 17:31:46 10° N 17:35:26 31° ENE 17:39:07 10° SE
Cosmos 1980 Rocket 3.5 17:33:16 10° SE 17:37:01 19° E 17:39:22 15° ENE
Cosmos 2297 Rocket 2.2 17:32:43 10° NNW 17:38:26 87° ENE 17:44:06 10° SSE
In-Cosmos 22 Rocket 4.1 17:34:53 10° N 17:40:15 69° ENE 17:45:43 10° SSE
PSLV R/B 4.4 17:36:26 10° NNE 17:40:22 39° E 17:44:14 10° SSE
CZ-2C R/B 3.7 17:38:13 10° SE 17:43:31 39° ENE 17:48:39 10° N
Cosmos 1315 Rocket 3.6 17:42:15 10° SSE 17:45:43 30° E 17:49:15 10° NNE
Cosmos 1553 Rocket 4.0 17:43:24 10° S 17:49:40 66° E 17:55:52 10° NNE
Cosmos 220 Rocket 4.3 17:47:07 10° S 17:51:17 47° ESE 17:55:33 10° NNE
Meteor 2-15 4.5 17:47:21 10° S 17:53:19 56° E 17:59:18 10° NNE
BREEZE-M R/B 3.6 17:50:36 10° WNW 17:54:19 64° NNE 17:59:00 20° E
Meteor 2-10 Rocket 3.6 17:50:23 10° S 17:55:30 52° E 18:00:27 10° NNE
USA 305 2.9 17:51:17 10° NW 17:55:35 69° NNE 17:58:11 23° ESE
SKYMED 2 3.5 17:52:06 10° NNE 17:56:28 73° ESE 18:00:47 10° S
Cosmos 1455 2.6 17:54:02 10° SSE 17:57:33 39° E 18:01:08 10° NNE
NOSS 3-4 (A) 4.3 17:55:04 10° NNW 18:01:27 40° NE 18:05:39 22° E
NOSS 3-4 (C) 4.3 17:55:10 10° NNW 18:01:33 40° NE 18:05:43 22° E
SeaSat 1 3.6 18:00:38 22° ENE 18:01:47 24° NE 18:05:42 10° N
USA 306 2.8 17:57:48 10° NW 18:02:06 75° NNE 18:04:25 26° ESE
H-2A R/B 2.6 17:58:56 10° SE 18:03:58 40° ENE 18:09:02 10° N
Okean-O 2.5 18:00:54 10° SSE 18:05:18 68° ENE 18:09:43 10° N
FALCON 9 DEB 4.1 18:03:43 10° W 18:06:45 35° NNW 18:07:57 25° NNE
FALCON 9 DEB 4.2 18:05:44 10° W 18:08:42 33° NNW 18:09:47 26° NNE
MOS 1 Rocket 3.9 18:04:31 10° NNE 18:08:55 36° E 18:13:32 10° SSE
Cosmos 2278 4.2 18:05:08 10° S 18:10:14 36° ESE 18:12:45 24° ENE
NOSS 3-3 (A) 3.9 18:05:14 10° SSW 18:10:57 66° ESE 18:16:10 16° NE
NOSS 3-3 (C) 3.9 18:05:21 10° SSW 18:11:05 65° ESE 18:16:14 16° NE
Aureole 3 Rocket 3.9 18:07:05 10° SSW 18:11:12 61° WNW 18:17:00 10° N
Cosmos 2219 4.2 18:06:21 10° NW 18:11:55 51° WSW 18:17:27 10° S
USA 215 4.1 18:10:10 21° ENE 18:13:54 37° N 18:19:47 10° NW
ATLAS 5 CENTAUR R/B 4.3 18:13:10 10° NNW 18:14:47 11° N 18:16:29 10° NNE
Cosmos 1745 Rocket 3.9 18:09:38 10° N 18:16:00 81° E 18:22:20 10° S
Lacrosse 5 3.2 18:14:16 10° NW 18:18:33 26° N 18:20:11 22° NE
Cosmos 44 Rocket 3.5 18:14:01 10° S 18:18:34 46° ESE 18:19:58 36° ENE
Cosmos 1408 2.5 18:15:26 10° N 18:19:07 89° W 18:22:47 10° S
Cosmos 2082 3.6 18:13:32 10° NNW 18:19:18 85° ENE 18:25:03 10° SSE
GEOS 3 Rocket 4.0 18:17:20 31° E 18:19:26 46° NE 18:24:35 10° NNW
ARGOS 3.5 18:17:21 26° ESE 18:19:49 41° ENE 18:24:54 10° N
Cosmos 1656 4.2 18:17:51 10° SW 18:23:21 60° WNW 18:28:59 10° NNE
FALCON 9 DEB 4.3 18:20:33 10° W 18:23:30 31° NNW 18:24:00 29° N
ATLAS 2AS CENTAUR R/B 3.3 18:16:21 10° NNW 18:23:32 42° NE 18:26:16 31° E
ERBS 4.4 18:21:46 10° NNW 18:23:42 16° N 18:23:42 16° N
Cosmos 968 Rocket 4.1 18:19:25 10° NNW 18:24:33 57° WSW 18:29:35 10° S
Cosmos 1386 Rocket 4.5 18:18:19 10° N 18:24:46 88° E 18:31:06 10° S
Cosmos 1689 Rocket 3.3 18:22:24 10° N 18:25:09 41° WNW 18:27:53 10° SW
FALCON 9 DEB 4.4 18:30:14 10° WNW 18:33:04 28° NNW 18:33:08 28° N
FALCON 9 DEB 3.6 18:30:01 10° NW 18:32:58 49° N 18:32:58 49° N
Cosmos 1076 Rocket 3.4 18:29:14 10° N 18:33:31 86° WSW 18:37:46 10° S
Cosmos 2369 3.6 18:28:51 10° SSW 18:34:34 82° ESE 18:39:11 16° NNE
Cosmos 1892 4.3 18:32:05 10° NNW 18:35:41 37° W 18:39:16 10° SSW
Cosmos 1777 Rocket 4.3 18:33:43 10° N 18:38:35 44° ENE 18:38:35 44° ENE
CSL-04 Rocket 3.6 18:35:36 10° SSE 18:41:09 80° ENE 18:46:41 10° NNW
Cosmos 2227 Rocket 3.6 18:37:35 10° NW 18:42:45 37° WSW 18:47:53 10° S
COSMO-SKYMED 1 4.1 18:40:25 10° N 18:44:25 37° WNW 18:48:23 10° SW
Cosmos 2263 Rocket 2.6 18:39:47 10° NNW 18:45:07 43° NE 18:45:07 43° NE
Cosmos 1709 Rocket 3.9 18:39:05 10° N 18:45:30 78° E 18:51:53 10° SSE
USA 307 3.2 18:41:37 10° WNW 18:45:50 59° SW 18:46:28 52° S
CZ-4C R/B 3.5 18:42:03 10° NNW 18:48:19 36° NE 18:49:38 34° NE
USA 308 3.3 18:46:36 10° WNW 18:50:47 55° SW 18:51:15 52° SSW
Cosmos 1825 2.7 18:47:32 10° NNW 18:51:17 57° W 18:52:23 39° SSW
Cosmos 1697 Rocket 3.1 18:51:15 10° SW 18:56:47 61° WNW 19:01:26 15° NNE
YAOGAN 1 3.6 18:53:07 10° S 18:57:15 44° W 19:01:25 10° NNW
Cosmos 883 Rocket 4.4 18:53:25 10° S 18:59:34 84° W 19:05:45 10° N
Cosmos 1812 Rocket 4.4 19:00:16 10° SSW 19:04:32 50° WNW 19:08:48 10° N
CZ-4 R/B 3.3 19:01:23 10° SSW 19:04:45 28° W 19:08:07 10° NW
Cosmos 2315 Rocket 3.9 19:04:11 10° S 19:10:23 85° W 19:16:38 10° N
Atlas Centaur 2 4.3 19:03:57 10° SW 19:10:29 25° S 19:12:40 23° SSE
SL-4 R/B 3.5 19:10:08 10° WNW 19:12:07 31° WNW 19:12:07 31° WNW
Cosmos 2151 4.4 19:11:43 10° NNW 19:14:07 32° NNW 19:14:07 32° NNW
Cosmos 1980 Rocket 2.3 19:14:46 10° SSW 19:20:23 72° WNW 19:21:13 62° N
Ariane Rocket 4.4 19:33:54 29° NNW 19:33:54 29° NNW 19:36:23 10° NNW
SeaSat 1 3.5 19:40:26 42° NW 19:40:26 42° NW 19:43:51 10° NNW
H-2A R/B 3.8 19:38:38 10° SSW 19:43:26 32° W 19:48:18 10° NNW
NOSS 3-4 (A) 4.0 19:45:50 10° NW 19:52:48 65° WSW 19:53:08 64° SW
NOSS 3-4 (C) 4.0 19:45:57 10° NW 19:52:55 65° WSW 19:53:11 65° SW
USA 215 3.7 19:57:31 53° NNW 19:57:31 53° NNW 20:02:43 10° NW
ATLAS 5 CENTAUR R/B 4.5 19:58:08 10° NNW 19:59:05 13° N 19:59:05 13° N
Lacrosse 5 3.9 19:57:23 10° NW 19:59:23 23° NW 19:59:23 23° NW
ATLAS 2AS CENTAUR R/B 3.3 20:07:33 10° NW 20:13:44 53° W 20:13:44 53° W
Cosmos 2263 Rocket 4.1 20:23:57 10° NW 20:26:50 25° WNW 20:26:50 25° WNW
CZ-4C R/B 3.8 20:30:20 10° NW 20:34:50 44° NW 20:34:50 44° NW
